Starlink 32634

operational
NORAD ID: 62313 Int'l Des: 2024-239 Owner: SPXS Country: US Constellation: starlink
LEOCIRCULAR

About Starlink 32634

Description loading...

Live Position

Loading 3D Globe...

Upcoming Passes

Altitude History

Altitude vs Time

uPlot chart will show altitude changes over time

Two-Line Element Set

1 62313U 24239N 25352.28726562 .00019083 00000-0 65460-3 0 9995
2 62313 53.1572 199.0466 0001608 86.7890 273.3295 15.30207485 57107
Epoch: Dec 18, 2025 • Age: 16 hours

Current Status

Altitude 478.5 km
Velocity 7.63 km/s
Sub-Earth Point -11.64°S, 121.81°E
Launch Date Dec 13, 2024
Age 1 years
Type internet

Technical Details

Classification Payload
Mass 730.00 kg
Dry Mass 700.00 kg
Total Mass 730.00 kg
Length 0.30 m
Diameter 4.10 m
Span 29.00 m
Shape Box + pan
Manufacturer SPXS
Bus Type Starlink V2M
Phase Status In Orbit
Owner/State SPXS/US

Large Constellations

Loading constellations...